"Pseudo-MPEC" for TTT0007

Created 2024 Oct 7 20:22:22 UT using Find_Orb

Click here for an explanation of pseudo-MPECs

 
 Astrometry: 
     TTT0007*KB2024 09 30.86502 21 49 40.90 -12 48 09.2    ~A207       VNEOCPY64
     TTT0007 KB2024 09 30.87202 21 49 41.29 -12 48 37.8    ~A207 21.3 GVNEOCPY64
     TTT0007 KB2024 09 30.87919 21 49 41.66 -12 49 07.3    ~A207 21.6 GVNEOCPY64

Station data:
(Y64) Transient Survey Telescope, Teide  (N28.298930 W16.510390)  Canary
   Islands (Spain).

Orbital elements:  TTT0007
   Perihelion 2024 Aug 3.83736 +/- 60.1 TT = 20:05:48 (JD 2460526.33736)
Epoch 2024 Oct  1.0 TT = JDT 2460584.5   Earth MOID: 0.0917   Ma: 0.0346
M  41.68118087 +/- 51               (J2000 ecliptic)             AutoNEOCP
n   0.71663152 +/- 0.554            Peri.   31.66532 +/- 90
a   1.23672206 +/- 0.637            Node   178.41601 +/- 5.4
e   0.8490403 +/- 0.277             Incl.   47.67004 +/- 28
P   1.375/502.341d         H 22.47  G  0.15   U 12.4  SR
q 0.18669512 +/- 0.508    Q 2.28674899 +/- 24.4
From 3 observations 2024 Sept. 30 (20.4 min); mean residual 0".08
Residuals in arcseconds: 
240930 Y64  .07-  .04-    240930 Y64  .14+  .08+    240930 Y64  .07-  .04-    

Ephemerides (geocentric):
Date (UTC) HH   RA             Dec           delta  r     elong  mag " sig PA
---- --------  ------------   ------------  ------ ------ -----  --- --------
2024 10 07 20  21 56 12.371   -18 04 56.48  .44371 1.3289 130.0 22.8 814'  80
2024 10 07 21  21 56 14.530   -18 06 10.32  .44457 1.3294 130.0 22.8 822'  81
2024 10 07 22  21 56 16.688   -18 07 23.83  .44543 1.3299 130.0 22.8 829'  81
2024 10 07 23  21 56 18.845   -18 08 37.00  .44629 1.3304 129.9 22.8 835'  82
2024 10 08 00  21 56 21.001   -18 09 49.85  .44715 1.3309 129.9 22.8 841'  83
2024 10 08 01  21 56 23.156   -18 11 02.38  .44802 1.3314 129.8 22.8 847'  83
2024 10 08 02  21 56 25.310   -18 12 14.58  .44888 1.3319 129.8 22.8 852'  84
2024 10 08 03  21 56 27.463   -18 13 26.46  .44974 1.3324 129.8 22.8 857'  84
2024 10 08 04  21 56 29.615   -18 14 38.01  .45060 1.3329 129.7 22.8 862'  84
2024 10 08 05  21 56 31.766   -18 15 49.25  .45147 1.3334 129.7 22.8 866'  85
2024 10 08 06  21 56 33.916   -18 17 00.17  .45233 1.3339 129.6 22.8 870'  85
2024 10 08 07  21 56 36.065   -18 18 10.78  .45319 1.3345 129.6 22.8 874'  86
2024 10 08 08  21 56 38.213   -18 19 21.07  .45405 1.3350 129.6 22.8 878'  86
2024 10 08 09  21 56 40.361   -18 20 31.05  .45492 1.3355 129.5 22.8 882'  86
2024 10 08 10  21 56 42.507   -18 21 40.72  .45578 1.3360 129.5 22.8 885'  87
2024 10 08 11  21 56 44.652   -18 22 50.08  .45664 1.3365 129.4 22.8 888'  87
2024 10 08 12  21 56 46.797   -18 23 59.14  .45751 1.3370 129.4 22.9 891'  87
2024 10 08 13  21 56 48.941   -18 25 07.88  .45837 1.3375 129.3 22.9 894'  87
2024 10 08 14  21 56 51.083   -18 26 16.33  .45924 1.3380 129.3 22.9 897'  88
2024 10 08 15  21 56 53.225   -18 27 24.47  .46010 1.3385 129.3 22.9 900'  88
2024 10 08 16  21 56 55.366   -18 28 32.31  .46096 1.3390 129.2 22.9 903'  88
2024 10 08 17  21 56 57.507   -18 29 39.85  .46183 1.3395 129.2 22.9 905'  88
2024 10 08 18  21 56 59.646   -18 30 47.09  .46269 1.3400 129.1 22.9 908'  88
2024 10 08 19  21 57 01.785   -18 31 54.04  .46356 1.3405 129.1 22.9 910'  89
2024 10 08 20  21 57 03.923   -18 33 00.69  .46442 1.3410 129.1 22.9 913'  89
2024 10 08 21  21 57 06.060   -18 34 07.05  .46529 1.3415 129.0 22.9 915'  89
2024 10 08 22  21 57 08.196   -18 35 13.12  .46615 1.3420 129.0 22.9 917'  89
2024 10 08 23  21 57 10.332   -18 36 18.89  .46702 1.3425 128.9 22.9 919'  89
2024 10 09 00  21 57 12.467   -18 37 24.38  .46788 1.3430 128.9 22.9 921'  89
2024 10 09 01  21 57 14.601   -18 38 29.58  .46875 1.3435 128.9 22.9 924'  89
2024 10 09 02  21 57 16.734   -18 39 34.50  .46961 1.3440 128.8 22.9 926'  90
2024 10 09 03  21 57 18.867   -18 40 39.13  .47048 1.3445 128.8 22.9 928'  90
2024 10 09 04  21 57 20.999   -18 41 43.48  .47135 1.3450 128.7 22.9 930'  90
2024 10 09 05  21 57 23.130   -18 42 47.54  .47221 1.3455 128.7 22.9 932'  90
2024 10 09 06  21 57 25.261   -18 43 51.33  .47308 1.3460 128.7 22.9 934'  90
2024 10 09 07  21 57 27.391   -18 44 54.84  .47395 1.3465 128.6 22.9 936'  90
2024 10 09 08  21 57 29.520   -18 45 58.07  .47481 1.3470 128.6 23.0 938'  90
2024 10 09 09  21 57 31.649   -18 47 01.02  .47568 1.3475 128.5 23.0 941'  90
2024 10 09 10  21 57 33.777   -18 48 03.70  .47655 1.3480 128.5 23.0 943'  90
2024 10 09 11  21 57 35.904   -18 49 06.11  .47741 1.3485 128.4 23.0 945'  90
2024 10 09 12  21 57 38.031   -18 50 08.25  .47828 1.3490 128.4 23.0 948'  90
2024 10 09 13  21 57 40.157   -18 51 10.11  .47915 1.3495 128.4 23.0 950'  90
2024 10 09 14  21 57 42.283   -18 52 11.71  .48001 1.3500 128.3 23.0 953'  90
2024 10 09 15  21 57 44.408   -18 53 13.04  .48088 1.3505 128.3 23.0 955'  90
2024 10 09 16  21 57 46.532   -18 54 14.10  .48175 1.3510 128.2 23.0 958'  90
2024 10 09 17  21 57 48.656   -18 55 14.90  .48262 1.3515 128.2 23.0 961'  89
2024 10 09 18  21 57 50.779   -18 56 15.43  .48349 1.3520 128.2 23.0 964'  89
2024 10 09 19  21 57 52.902   -18 57 15.70  .48435 1.3525 128.1 23.0 967'  89